Retour au catalogue

STARLINK-32651

ActifCommunicationsVLEO
NORAD 62314·PAYLOAD·🇺🇸 United States

Lancé Dec 13, 2024 depuis Vandenberg Space Force Base

Loading…

Prochains Passages (prochaines 24 heures)

TLE

FraisSource: CelesTrak SupGP

Époque: Sep 15, 2026, 02:36 UTC

1 62314C 24239P   26258.10881944  .00012897  00000+0  38120-3 0  2585
2 62314  53.1606  31.1547 0001277  91.4937 358.3337 15.34372109    18

Suivez STARLINK-32651 en temps réel avec AllMySat

Download on the App Store